Regional Weather Roundup
Issued by NWS

Home | Current Version | Previous Version | Text Only | Print | Product List | Glossary Off
Versions: 1 2 3 4 5 6 7 8 9 10 11 12 13 14 15 16 17 18 19 20 21 22 23 24 25 26 27 28 29 30 31 32 33 34 35 36 37 38 39 40 41 42 43 44 45 46 47 48 49 50

000
ASUS43 KDMX 250006
RWRIA

WEATHER ROUNDUP FOR IOWA
NATIONAL WEATHER SERVICE DES MOINES IA
600 PM CST TUE JAN 24 2017

NOTE: "FAIR" INDICATES FEW OR NO CLOUDS BELOW 12,000 FEET WITH NO
SIGNIFICANT WEATHER AND/OR OBSTRUCTIONS TO VISIBILITY.

* - THESE STATIONS ARE NOT NWS STATIONS...THUS NOT UNDER NWS
QUALITY CONTROL.  THEY ALSO DO NOT REPORT WEATHER SUCH
AS PRECIPITATION OR FOG.

IAZ001>003-012>014-020>022-031>034-043>046-250100-
   NORTHWEST IOWA

CITY           SKY/WX    TMP DP  RH WIND       PRES   REMARKS
CARROLL *      CLOUDY    32  32 100 E18       29.61R FOG     WCI  20
CHEROKEE *     LGT SNOW  30  30 100 NE13G20   29.63S VSB 3/4 WCI  20
DENISON *      FLURRIES  32  30  93 E17G25    29.57R WCI  21
LE MARS *      LGT SNOW  30  30 100 NE17G26   29.65R VSB 3/4 WCI  18
ORANGE CITY *  LGT SNOW  28  28 100 NE12G20   29.64R VSB 3/4 WCI  18
SHELDON *      SNOW      28  30 100 NE24      29.64S VSB 1/4 WCI  14
SIOUX CITY     LGT SNOW  32  30  92 S12G24    29.61R FOG     WCI  23
6HR MIN TEMP:  32; 6HR MAX TEMP:  34; 6HR PCP:  0.09;

SPENCER        HVY SNOW  30  28  92 NE22      29.67F VSB 1/4 WCI  17
6HR MIN TEMP:  30; 6HR MAX TEMP:  31; 6HR PCP:  0.06;

STORM LAKE *   LGT SNOW  28  28 100 NE21G29   29.62R WCI  15
$$

IAZ055>058-069>071-079>083-090>094-250100-
   SOUTHWEST IOWA

CITY           SKY/WX    TMP DP  RH WIND       PRES   REMARKS
ATLANTIC *     LGT SNOW  32  32 100 E8G16     29.57S WCI  25
AUDUBON *      SNOW      30  28  93 E12G17    29.59S VSB 1/2 WCI  21
CLARINDA *     CLOUDY    36  34  93 E8        29.54F WCI  29
COUNCIL BLFS * CLOUDY    32  32 100 E10       29.55S WCI  24
CRESTON *      CLOUDY    32  32 100 E20       29.56R WCI  20
HARLAN  *      CLOUDY    32  32 100 NE9G17    29.61R WCI  24
LAMONI         CLOUDY    36  31  82 E8        29.54F WCI  30
6HR MIN TEMP:  33; 6HR MAX TEMP:  40;

RED OAK *      CLOUDY    34  32  93 E9G16     29.55R WCI  26
SHENANDOAH *   CLOUDY    36  32  87 NE12      29.54R WCI  27
$$

IAZ047>049-059>061-072>074-084-250100-
   CENTRAL IOWA

CITY           SKY/WX    TMP DP  RH WIND       PRES   REMARKS
AMES           CLOUDY    32  32 100 E16G25    29.62F FOG     WCI  21
6HR MIN TEMP:  31; 6HR MAX TEMP:  32; 6HR PCP: TRACE;

ANKENY *       CLOUDY    32  30  93 E10       29.65R WCI  24
BOONE *        CLOUDY    32  32 100 E21G28    29.60F FOG     WCI  20
CHARITON *     CLOUDY    34  32  93 E13       29.60R WCI  25
DES MOINES     CLOUDY    34  30  85 E13G22    29.63R WCI  25
6HR MIN TEMP:  32; 6HR MAX TEMP:  35;

GRINNELL*      CLOUDY    33  32  96 E15       29.63F FOG     WCI  23
KNOXVILLE *    CLOUDY    34  32  93 E9G16     29.61R WCI  26
MARSHALLTOWN   CLOUDY    32  31  96 E15       29.65F WCI  22
6HR MIN TEMP:  31; 6HR MAX TEMP:  32; 6HR PCP: TRACE;

NEWTON *       CLOUDY    34  32  93 E15G22    29.63R WCI  24
PELLA *        CLOUDY    34  32  93 E8        29.64R WCI  27
PERRY *        CLOUDY    32  32  99 E16       29.63R FOG     WCI  21
$$

IAZ004>006-015-016-023>025-035-036-250100-
   NORTH CENTRAL IOWA

CITY           SKY/WX    TMP DP  RH WIND       PRES   REMARKS
ALGONA *       HVY SNOW  30  30 100 MISG      29.67R VSB<1/4
CLARION *      CLOUDY    32  32 100 E22G28    29.65R WCI  19
ESTHERVILLE    HVY SNOW  29  29 100 NE16      29.70S VSB 1/4 WCI  17
6HR MIN TEMP:  29; 6HR MAX TEMP:  29; 6HR PCP:  0.02;

FORT DODGE *   CLOUDY    30  27  86 E16       29.67R WCI  19
MASON CITY     SNOW      31  29  92 E13       29.70S VSB 1/2 WCI  21
6HR MIN TEMP:  30; 6HR MAX TEMP:  31; 6HR PCP:  0.02;

FOREST CITY *  LGT SNOW  32  32 100 NE8       29.70R VSB 3/4 WCI  25
WEBSTER CITY * CLOUDY    32 N/A N/A E22       29.62R WCI  19
IOWA FALLS *   CLOUDY    32  30  93 E15       29.68R WCI  22
$$

IAZ007>011-017>019-026>030-037>042-050>054-066-250100-
   NORTHEAST IOWA

CITY           SKY/WX    TMP DP  RH WIND       PRES   REMARKS
CEDAR RAPIDS   CLOUDY    34  32  92 E14       29.68R WCI  25
6HR MIN TEMP:  31; 6HR MAX TEMP:  34; 6HR PCP: TRACE;

CHARLES CITY * LGT SNOW  32  32 100 E14       29.71R WCI  22
CLINTON *      LGT RAIN  35  33  92 E21       29.67F WCI  24
DECORAH *      CLOUDY    32  30  93 E10       29.70F WCI  24
DUBUQUE        CLOUDY    33  31  92 E13       29.71F WCI  24
6HR MIN TEMP:  32; 6HR MAX TEMP:  33; 6HR PCP:  0.01;

MONTICELLO *   CLOUDY    34  32  93 E13       29.69R WCI  25
OELWEIN *      LGT SNOW  32  32 100 E15       29.69R WCI  22
WATERLOO       FLURRIES  32  30  92 E9        29.70R WCI  24
6HR MIN TEMP:  31; 6HR MAX TEMP:  33; 6HR PCP:  0.03;

$$

IAZ064-065-067-068-078-250100-
   EAST CENTRAL IOWA

CITY           SKY/WX    TMP DP  RH WIND       PRES   REMARKS
DAVENPORT      CLOUDY    36  32  85 E17G28    29.68F WCI  26
6HR MIN TEMP:  35; 6HR MAX TEMP:  36; 6HR PCP: TRACE;

IOWA CITY      CLOUDY    37  32  82 E14       29.69R WCI  28
6HR MIN TEMP:  34; 6HR MAX TEMP:  37; 6HR PCP: TRACE;

MUSCATINE *    CLOUDY    37  34  87 E13       29.69R WCI  29
QUAD CITIES    CLOUDY    37  32  82 E14       29.68F WCI  28
6HR MIN TEMP:  37; 6HR MAX TEMP:  38; 6HR PCP: TRACE;

$$

IAZ062-063-075>077-085>089-095>099-250100-
   SOUTHEAST IOWA

CITY           SKY/WX    TMP DP  RH WIND       PRES   REMARKS
BURLINGTON     PTCLDY    38  34  85 E16G22    29.63R WCI  29
6HR MIN TEMP:  35; 6HR MAX TEMP:  39;

FAIRFIELD *    CLOUDY    36  32  87 E13       29.63S WCI  27
FORT MADISON * CLEAR     37  36  93 E10G18    29.65R WCI  30
KEOKUK *       CLEAR     37 N/A N/A E13       29.63S WCI  29
OSKALOOSA *    CLOUDY    35  32  90 E15       29.63S WCI  25
CENTERVILLE *  MOCLDY    34  34 100 E7        29.61R WCI  28
OTTUMWA        CLOUDY    36  31  82 E12       29.62S WCI  28
6HR MIN TEMP:  32; 6HR MAX TEMP:  36;

WASHINGTON *   CLOUDY    36  34  93 E15       29.67R WCI  26
$$

ABBREVIATIONS USED IN REMARKS
   TC - TEMPERATURES IN CELSIUS
  WCI - WIND CHILL INDEX
   HX - HEAT INDEX
  VSB - VISIBILITY
$$





USA.gov is the U.S. government's official web portal to all federal, state and local government web resources and services.